Location: Middlebury
(44.0133°N, 73.1813°W)
Time: 15:55:58
(UTC-05:00)

ISS - Pass Details

Date: 26 January 2020
Orbit: 416 x 422 km, 51.6° (Epoch: 20 February)

Event Time Altitude Azimuth Distance (km) Brightness Sun altitude
Rises 18:36:06 0° 276° (W) 2,375 1.6 -18.3°
Reaches altitude 10° 18:38:26 10° 290° (WNW) 1,510 0.0 -18.7°
Maximum altitude 18:41:19 25° 348° (NNW) 889 -2.1 -19.2°
Enters shadow 18:41:44 25° 1° (N) 905 -2.2 -19.3°
